Flag for U.S.A. Weather past 2 weeks in Hayward, California, U.S.A.

Now
57 °F

Low clouds.


Feels Like: 55 °F
Forecast: 55 / 70 °F
Wind: 10 mph from West

Location: Hayward Air Terminal

Current Time: May 28, 2015 at 8:30:50 PM

Latest Report: May 28, 2015 at 7:54 PM


Visibility: 10 mi

Pressure: 30.02 "Hg

Humidity: 83%

Dew point: 52 °F

Location of HaywardLocation

Historic Weather in Hayward — Graph

°F

Hayward temperature yesterday

Maximum temperature yesterday: 63 °F (at 12:54 PM)
Minimum temperature yesterday: 55 °F (at 5:54 AM)
Average temperature yesterday: 58 °F

Past Weeks' High & Low Weather Summary

 TemperatureHumidityPressure
High65 °F (May 14, 12:54 PM)93% (May 21, 7:54 AM)30.15 "Hg (May 21, 7:54 AM)
Low52 °F (May 15, 3:02 AM)54% (May 14, 10:54 AM)29.82 "Hg (May 14, 4:54 PM)
Average57 °F76%30.02 "Hg
* Reported May 13 6:54 PM — May 28 6:54 PM, Hayward, Weather by CustomWeather, © 2015

Note: Actual official high and low records may vary slightly from our data, if they occured in-between our weather recording intervals... More about our weather records

Advertising

Hayward weather history for previous 24 hours

 ConditionsComfort  
Time TempWeatherWind HumidityBarometerVisibility
6:54 PM
Thu, May 28
58 °FPartly sunny.10 mph81%30.02 "Hg10 mi
5:54 PM61 °FPassing clouds.12 mph72%30.01 "Hg10 mi
4:54 PM62 °FPassing clouds.13 mph73%30.03 "Hg10 mi
3:54 PM63 °FSunny.10 mph68%30.04 "Hg10 mi
2:54 PM62 °FPassing clouds.7 mph67%30.05 "Hg10 mi
1:54 PM61 °FSunny.9 mph70%30.06 "Hg10 mi
1:01 PM59 °FScattered clouds.10 mph77%30.05 "Hg10 mi
11:54 AM58 °FOvercast.8 mph78%30.08 "Hg10 mi
10:54 AM56 °FLow clouds.8 mph81%30.09 "Hg10 mi
9:54 AM54 °FLow clouds.5 mph86%30.08 "Hg10 mi
8:54 AM54 °FLow clouds.8 mph86%30.09 "Hg10 mi
7:54 AM53 °FLow clouds.9 mph89%30.08 "Hg10 mi
6:54 AM54 °FLow clouds.7 mph86%30.07 "Hg10 mi
5:54 AM53 °FLow clouds.7 mph89%30.06 "Hg10 mi
4:54 AM53 °FLow clouds.8 mph89%30.05 "Hg10 mi
3:54 AM53 °FLow clouds.10 mph89%30.05 "Hg10 mi
2:54 AM54 °FLow clouds.9 mph86%30.05 "Hg10 mi
1:54 AM54 °FLow clouds.8 mph86%30.05 "Hg10 mi
12:54 AM54 °FLow clouds.7 mph86%30.06 "Hg10 mi
11:54 PM
Wed, May 27
55 °FLow clouds.8 mph83%30.06 "Hg10 mi
10:54 PM55 °FLow clouds.10 mph87%30.07 "Hg10 mi
9:54 PM55 °FOvercast.7 mph83%30.07 "Hg10 mi
8:54 PM56 °FMostly cloudy.10 mph84%30.05 "Hg10 mi
Weather by CustomWeather, © 2015

See weather overviewHow to use our weather pages